カタログに戻る

STARLINK-4486

運用中通信VLEO
NORAD 53540·PAYLOAD·🇺🇸 United States

打ち上げ Aug 19, 2022 から Cape Canaveral Space Force Station

Loading…

次のパス (今後24時間)

TLE

最新Source: CelesTrak SupGP

元期: Sep 14, 2026, 22:19 UTC

1 53540C 22101P   26257.93034722  .00034935  00000+0  21913-2 0  2573
2 53540  53.1593 294.3135 0001159  87.7555 334.3015 15.08808803    16

AllMySatでSTARLINK-4486をリアルタイム追跡

Download on the App Store